Wilkerson Pass, CO

8:43 PM MDT on September 25, 2017 (GMT -0600)
Wilkerson Pass

Weather History for K4BM - April, 2014

Change the Weather History Date:

Friday, April 4, 2014

  Actual Average (KAFF) Record (KAFF)
Temperature  
Mean Temperature 21 °F -  
Max Temperature 32 °F 51 °F 71 °F (2006)
Min Temperature 10 °F 27 °F 13 °F (2014)
Degree Days  
Heating Degree Days 44    
Moisture  
Dew Point 10 °F    
Average Humidity 66    
Maximum Humidity 86    
Minimum Humidity 47    
Precipitation  
Precipitation 0.00 in - - ()
Sea Level Pressure  
Sea Level Pressure 30.05 in    
Wind  
Wind Speed 8 mph (SW)    
Max Wind Speed 15 mph    
Max Gust Speed 29 mph    
Visibility 10 miles    
Events      
Averages and records for this station are not official NWS values.
T = Trace of Precipitation, MM = Missing Value Source: NWS Daily Summary

Daily Weather History Graph

Daily Weather History Graph

Search for Another Location

Airport or City:

Trip Planner

Search our weather history database for the weather conditions in past years. The results will help you decide how hot, cold, wet, or windy it might be!

Date:

Astronomy

Apr. 04, 2014 Rise Set
Actual Time 6:41 AM MDT 7:28 PM MDT
Civil Twilight 6:14 AM MDT 7:55 PM MDT
Nautical Twilight 5:42 AM MDT 8:27 PM MDT
Astronomical Twilight 5:09 AM MDT 9:01 PM MDT
Moon 10:02 AM MDT (4/4) No Moon Set
Length of Visible Light 13h 40m
Length of Day
12h 46m
Waxing Crescent, 26% of the Moon is Illuminated
Apr 4
Waxing Crescent
Apr 7
First Quarter
Apr 15
Full
Apr 22
Last Quarter
Apr 29
New

Hourly Weather History & Observations

Time (MDT) Temp. Windchill Dew Point Humidity Pressure Visibility Wind Dir Wind Speed Gust Speed Precip Events Conditions
12:15 AM 12.2 °F -0.2 °F 8.6 °F 85% 30.08 in 10.0 mi WNW 9.2 mph 16.1 mph N/A   Mostly Cloudy
12:33 AM 14.0 °F 2.9 °F 8.6 °F 79% 30.08 in 10.0 mi WNW 8.1 mph - N/A   Mostly Cloudy
12:55 AM 12.2 °F -0.2 °F 8.6 °F 85% 30.08 in 10.0 mi West 9.2 mph - N/A   Mostly Cloudy
1:14 AM 12.2 °F -3.1 °F 8.6 °F 85% 30.07 in 10.0 mi West 13.8 mph 18.4 mph N/A   Scattered Clouds
1:33 AM 12.2 °F -1.0 °F 6.8 °F 79% 30.07 in 10.0 mi WNW 10.4 mph 21.9 mph N/A   Mostly Cloudy
1:53 AM 12.2 °F -1.0 °F 6.8 °F 79% 30.06 in 10.0 mi West 10.4 mph 23.0 mph N/A   Scattered Clouds
2:13 AM 12.2 °F -1.0 °F 6.8 °F 79% 30.06 in 10.0 mi West 10.4 mph 19.6 mph N/A   Scattered Clouds
2:34 AM 12.2 °F -1.0 °F 6.8 °F 79% 30.05 in 10.0 mi West 10.4 mph 17.3 mph N/A   Clear
2:54 AM 12.2 °F -3.7 °F 5.0 °F 73% 30.05 in 10.0 mi West 15.0 mph 24.2 mph N/A   Clear
3:14 AM 14.0 °F -1.4 °F 5.0 °F 67% 30.05 in 7.0 mi West 15.0 mph 28.8 mph N/A   Clear
3:34 AM 14.0 °F 2.9 °F 5.0 °F 67% 30.05 in 10.0 mi West 8.1 mph 25.3 mph N/A   Scattered Clouds
3:54 AM 12.2 °F 0.7 °F 5.0 °F 73% 30.05 in 10.0 mi WSW 8.1 mph 18.4 mph N/A   Scattered Clouds
4:14 AM 12.2 °F 0.7 °F 5.0 °F 73% 30.05 in 10.0 mi WSW 8.1 mph 16.1 mph N/A   Scattered Clouds
4:34 AM 12.2 °F 0.7 °F 5.0 °F 73% 30.04 in 10.0 mi WSW 8.1 mph - N/A   Scattered Clouds
4:54 AM 12.2 °F -1.0 °F 5.0 °F 73% 30.04 in 10.0 mi WSW 10.4 mph 19.6 mph N/A   Clear
5:14 AM 12.2 °F 1.7 °F 5.0 °F 73% 30.05 in 10.0 mi WSW 6.9 mph - N/A   Clear
5:34 AM 10.4 °F -1.5 °F 5.0 °F 79% 30.05 in 10.0 mi WSW 8.1 mph - N/A   Clear
5:54 AM 10.4 °F -2.4 °F 5.0 °F 79% 30.05 in 10.0 mi WSW 9.2 mph - N/A   Clear
6:14 AM 12.2 °F 0.7 °F 5.0 °F 73% 30.05 in 10.0 mi WSW 8.1 mph - N/A   Clear
6:34 AM 12.2 °F 0.7 °F 5.0 °F 73% 30.05 in 10.0 mi WSW 8.1 mph - N/A   Clear
6:54 AM 12.2 °F -1.0 °F 5.0 °F 73% 30.06 in 10.0 mi West 10.4 mph 16.1 mph N/A   Clear
7:14 AM 12.2 °F -1.0 °F 3.2 °F 67% 30.06 in 10.0 mi West 10.4 mph 16.1 mph N/A   Clear
7:34 AM 12.2 °F -1.0 °F 5.0 °F 73% 30.06 in 10.0 mi West 10.4 mph 17.3 mph N/A   Clear
7:54 AM 14.0 °F 1.2 °F 5.0 °F 67% 30.07 in 10.0 mi West 10.4 mph 17.3 mph N/A   Clear
8:14 AM 14.0 °F 2.0 °F 5.0 °F 67% 30.07 in 10.0 mi WSW 9.2 mph 20.7 mph N/A   Clear
8:34 AM 15.8 °F 3.4 °F 5.0 °F 62% 30.07 in 10.0 mi West 10.4 mph - N/A   Clear
8:54 AM 17.6 °F 8.2 °F 5.0 °F 58% 30.07 in 10.0 mi West 6.9 mph - N/A   Clear
9:14 AM 17.6 °F 8.2 °F 5.0 °F 58% 30.07 in 10.0 mi West 6.9 mph - N/A   Clear
9:34 AM 19.4 °F 10.4 °F 5.0 °F 54% 30.08 in 10.0 mi West 6.9 mph - N/A   Scattered Clouds
9:53 AM 19.4 °F 11.5 °F 6.8 °F 58% 30.09 in 10.0 mi West 5.8 mph - N/A   Scattered Clouds
10:14 AM 19.4 °F 12.8 °F 5.0 °F 54% 30.09 in 10.0 mi WSW 4.6 mph - N/A   Clear
10:34 AM 23.0 °F - 8.6 °F 54% 30.09 in 10.0 mi Calm Calm - N/A   Clear
10:55 AM 23.0 °F 18.4 °F 10.4 °F 59% 30.09 in 10.0 mi WSW 3.5 mph - N/A   Clear
11:15 AM 26.6 °F 21.2 °F 10.4 °F 51% 30.09 in 10.0 mi SW 4.6 mph - N/A   Clear
11:35 AM 26.6 °F 21.2 °F 8.6 °F 47% 30.09 in 10.0 mi SW 4.6 mph - N/A   Scattered Clouds
11:55 AM 26.6 °F - 10.4 °F 51% 30.09 in 10.0 mi North - - N/A   Scattered Clouds
12:15 PM 28.4 °F 23.3 °F 10.4 °F 47% 30.08 in 10.0 mi SSW 4.6 mph - N/A   Clear
12:55 PM 28.4 °F 21.2 °F 10.4 °F 47% 30.07 in 10.0 mi SSW 6.9 mph - N/A   Clear
1:15 PM 30.2 °F 23.4 °F 14.0 °F 51% 30.07 in 10.0 mi SSW 6.9 mph - N/A   Clear
1:35 PM 32.0 °F 27.5 °F 15.8 °F 51% 30.06 in 10.0 mi SSW 4.6 mph - N/A   Clear
1:55 PM 32.0 °F 26.4 °F 15.8 °F 51% 30.06 in 10.0 mi SW 5.8 mph - N/A   Clear
2:14 PM 32.0 °F 27.5 °F 15.8 °F 51% 30.05 in 10.0 mi SW 4.6 mph - N/A   Clear
2:35 PM 32.0 °F 27.5 °F 14.0 °F 48% 30.05 in 10.0 mi SSW 4.6 mph - N/A   Clear
2:55 PM 32.0 °F 27.5 °F 15.8 °F 51% 30.04 in 10.0 mi South 4.6 mph - N/A   Clear
3:15 PM 32.0 °F 25.6 °F 15.8 °F 51% 30.04 in 10.0 mi SSW 6.9 mph - N/A   Clear
3:35 PM 30.2 °F 23.4 °F 15.8 °F 55% 30.03 in 10.0 mi SSW 6.9 mph - N/A   Clear
3:55 PM 28.4 °F 22.2 °F 15.8 °F 59% 30.03 in 10.0 mi SSW 5.8 mph - N/A   Mostly Cloudy
4:14 PM 30.2 °F 25.4 °F 14.0 °F 51% 30.03 in 10.0 mi South 4.6 mph - N/A   Overcast
4:35 PM 30.2 °F 25.4 °F 14.0 °F 51% 30.02 in 10.0 mi South 4.6 mph - N/A   Mostly Cloudy
4:55 PM 30.2 °F 26.7 °F 14.0 °F 51% 30.02 in 10.0 mi SSW 3.5 mph - N/A   Mostly Cloudy
5:15 PM 26.6 °F 20.0 °F 12.2 °F 55% 30.02 in 10.0 mi SSW 5.8 mph - N/A   Mostly Cloudy
5:35 PM 26.6 °F 19.1 °F 12.2 °F 55% 30.01 in 10.0 mi South 6.9 mph - N/A   Mostly Cloudy
5:55 PM 26.6 °F 18.2 °F 12.2 °F 55% 30.01 in 10.0 mi South 8.1 mph - N/A   Mostly Cloudy
6:14 PM 26.6 °F 18.2 °F 12.2 °F 55% 30.02 in 10.0 mi South 8.1 mph - N/A   Mostly Cloudy
6:35 PM 24.8 °F 17.9 °F 14.0 °F 64% 30.02 in 10.0 mi South 5.8 mph - N/A   Mostly Cloudy
6:55 PM 23.0 °F 13.9 °F 14.0 °F 68% 30.02 in 10.0 mi South 8.1 mph - N/A   Overcast
7:15 PM 23.0 °F 14.7 °F 14.0 °F 68% 30.02 in 10.0 mi SSW 6.9 mph - N/A   Overcast
7:35 PM 21.2 °F 14.9 °F 14.0 °F 74% 30.02 in 10.0 mi SSW 4.6 mph - N/A   Overcast
7:55 PM 21.2 °F 14.9 °F 14.0 °F 74% 30.02 in 10.0 mi SSW 4.6 mph - N/A   Overcast
8:15 PM 21.2 °F 13.6 °F 14.0 °F 74% 30.03 in 10.0 mi SSW 5.8 mph - N/A   Overcast
8:35 PM 21.2 °F 13.6 °F 14.0 °F 74% 30.04 in 10.0 mi SSW 5.8 mph - N/A   Overcast
8:55 PM 21.2 °F 14.9 °F 14.0 °F 74% 30.05 in 10.0 mi SSW 4.6 mph - N/A   Overcast
9:13 PM 21.2 °F 13.6 °F 14.0 °F 74% 30.05 in 10.0 mi SSW 5.8 mph - N/A   Overcast
9:34 PM 21.2 °F 12.6 °F 14.0 °F 74% 30.05 in 10.0 mi SSW 6.9 mph - N/A   Overcast
9:53 PM 19.4 °F 8.6 °F 14.0 °F 80% 30.03 in 10.0 mi SW 9.2 mph - N/A   Mostly Cloudy
10:14 PM 19.4 °F 9.5 °F 14.0 °F 80% 30.04 in 10.0 mi SSW 8.1 mph - N/A   Scattered Clouds
10:34 PM 19.4 °F 7.2 °F 14.0 °F 80% 30.03 in 10.0 mi SW 11.5 mph 17.3 mph N/A   Mostly Cloudy
10:54 PM 19.4 °F 7.2 °F 14.0 °F 80% 30.03 in 10.0 mi SW 11.5 mph 19.6 mph N/A   Mostly Cloudy
11:14 PM 19.4 °F 7.9 °F 14.0 °F 80% 30.02 in 10.0 mi SW 10.4 mph 16.1 mph N/A   Scattered Clouds
11:34 PM 19.4 °F 9.5 °F 14.0 °F 80% 30.02 in 10.0 mi SSW 8.1 mph - N/A   Overcast
11:54 PM 17.6 °F 6.4 °F 14.0 °F 86% 30.02 in 10.0 mi SW 9.2 mph - N/A   Scattered Clouds